ONEWEB-0063 (45448 NORAD) Tracking and Keplerian Element Data

This shows tracking and keplerian element data for the satellite.

Feedback or suggestion? Click here.




ElementValue
Catalog45448
NameONEWEB-0063
Epoch Orbit176
Epoch Day293.91673611
Epoch Year2020
RAAN72.7292
Inclination87.7975
Eccentricity0.0027072
Argument of Perigee259.0287
Mean Anonmoly302.8968
Mean Motion13.97130674
Decay Rate-0.00010914
L11 45448U 20020AA 20293.91673611 -.00010914 00000-0 -78163-2 0 9993
L22 45448 87.7975 72.7292 0027072 259.0287 302.8968 13.97130674 1761

Live tracking and technical data element details for ONEWEB-0063 (NORAD 45448). ONEWEB-0063 can be tracked NOW for your location showing map with azimuth and elevation plus other details from your city location.

Track the satellite on the map from your city or location and see movement details for azimuth, elevation, latitude, longitude, range, height, and movement on the map or in text.







IsCatalogInMostPopularTable: catalog: 45448, numindb: 47
Update: records affected: 1



GetName: 45448 ONEWEB-0063

Hit Count: updated at: Tue, 20 Oct 2020 11:08:11 GMT